Zurück zum Katalog

STARLINK-34105

AktivKommunikationVLEO
NORAD 63977·PAYLOAD·🇺🇸 United States

Gestartet May 13, 2025 von Cape Canaveral Space Force Station

Loading…

Nächste Überflüge (nächste 24 Stunden)

TLE

AktuellSource: CelesTrak SupGP

Epoche: Sep 14, 2026, 21:30 UTC

1 63977C 25099AB  26257.89631944 -.00002971  00000+0 -10762-3 0  2579
2 63977  43.0013 184.2490 0001283 258.2938  61.2827 15.27580990    17

Verfolge STARLINK-34105 in Echtzeit mit AllMySat

Download on the App Store